Staples, MN

8:53 AM CDT on April 27, 2017 (GMT -0500)
Staples Municipal

Weather History for KSAZ - December, 2013

Change the Weather History Date:

Thursday, December 12, 2013

  Actual Average Record
Temperature  
Mean Temperature -3 °F -  
Max Temperature 10 °F 26 °F 48 °F (1998)
Min Temperature -16 °F 11 °F -20 °F (2000)
Degree Days  
Heating Degree Days 68    
Moisture  
Dew Point -2 °F    
Average Humidity 82    
Maximum Humidity 92    
Minimum Humidity 73    
Precipitation  
Precipitation 0.00 in - - ()
Sea Level Pressure  
Sea Level Pressure 30.15 in    
Wind  
Wind Speed 1 mph (NNW)    
Max Wind Speed 5 mph    
Max Gust Speed -    
Visibility 10 miles    
Events Snow    
Averages and records for this station are not official NWS values.
T = Trace of Precipitation, MM = Missing Value Source: NWS Daily Summary

Daily Weather History Graph

Daily Weather History Graph

Search for Another Location

Airport or City:

Trip Planner

Search our weather history database for the weather conditions in past years. The results will help you decide how hot, cold, wet, or windy it might be!

Date:

Astronomy

Dec. 12, 2013 Rise Set
Actual Time 7:53 AM CST 4:32 PM CST
Civil Twilight 7:18 AM CST 5:07 PM CST
Nautical Twilight 6:40 AM CST 5:45 PM CST
Astronomical Twilight 6:04 AM CST 6:22 PM CST
Moon 1:51 PM CST (12/12) 3:04 AM CST (12/12)
Length of Visible Light 9h 48m
Length of Day
8h 38m
Waxing Gibbous, 80% of the Moon is Illuminated
Dec 12
Waxing Gibbous
Dec 17
Full
Dec 25
Last Quarter
Jan 1
New
Jan 7
First Quarter

Hourly Weather History & Observations

Time (CST) Temp. Windchill Dew Point Humidity Pressure Visibility Wind Dir Wind Speed Gust Speed Precip Events Conditions
12:14 AM -5.8 °F - -7.6 °F 92% 30.17 in 10.0 mi Calm Calm - N/A Snow Light Snow
12:33 AM -5.8 °F - -9.4 °F 84% 30.16 in 10.0 mi Calm Calm - N/A Snow Light Snow
12:53 AM -7.6 °F - -9.4 °F 92% 30.15 in 10.0 mi Calm Calm - N/A   Scattered Clouds
1:14 AM -9.4 °F - -11.2 °F 92% 30.15 in 10.0 mi Calm Calm - N/A   Clear
1:33 AM -11.2 °F - -16.6 °F 77% 30.15 in 10.0 mi Calm Calm - N/A   Mostly Cloudy
1:53 AM -11.2 °F - -14.8 °F 84% 30.15 in 10.0 mi Calm Calm - N/A   Mostly Cloudy
2:13 AM -11.2 °F - -16.6 °F 77% 30.14 in 7.0 mi Calm Calm - N/A   Scattered Clouds
2:33 AM -16.6 °F - -20.2 °F 84% 30.16 in 10.0 mi Calm Calm - N/A   Clear
2:54 AM -14.8 °F - -18.4 °F 84% 30.16 in 10.0 mi Calm Calm - N/A   Clear
3:13 AM -16.6 °F - -20.2 °F 84% 30.16 in 10.0 mi Calm Calm - N/A   Clear
3:33 AM -14.8 °F - -18.4 °F 84% 30.16 in 10.0 mi Calm Calm - N/A   Clear
3:54 AM -13.0 °F - -16.6 °F 84% 30.16 in 10.0 mi Calm Calm - N/A   Clear
4:13 AM -11.2 °F - -14.8 °F 84% 30.16 in 10.0 mi Calm Calm - N/A   Clear
4:33 AM -9.4 °F - -13.0 °F 84% 30.16 in 10.0 mi Calm Calm - N/A   Clear
4:54 AM -7.6 °F - -11.2 °F 84% 30.16 in 10.0 mi Calm Calm - N/A   Clear
5:13 AM -5.8 °F - -9.4 °F 84% 30.15 in 10.0 mi Calm Calm - N/A   Clear
5:33 AM -5.8 °F - -9.4 °F 84% 30.15 in 10.0 mi Calm Calm - N/A   Clear
5:54 AM -5.8 °F - -9.4 °F 84% 30.15 in 10.0 mi Calm Calm - N/A   Clear
6:13 AM -5.8 °F - -7.6 °F 92% 30.16 in 10.0 mi Calm Calm - N/A   Clear
6:33 AM -4.0 °F - -7.6 °F 85% 30.17 in 10.0 mi Calm Calm - N/A   Clear
6:54 AM -2.2 °F -10.4 °F -5.8 °F 85% 30.17 in 10.0 mi NW 3.5 mph - N/A   Mostly Cloudy
7:13 AM -4.0 °F - -7.6 °F 85% 30.17 in 10.0 mi Calm Calm - N/A   Mostly Cloudy
7:33 AM -4.0 °F -12.4 °F -7.6 °F 85% 30.17 in 10.0 mi West 3.5 mph - N/A   Scattered Clouds
7:54 AM -2.2 °F - -5.8 °F 85% 30.16 in 10.0 mi Calm Calm - N/A   Clear
8:13 AM -4.0 °F - -7.6 °F 85% 30.17 in 10.0 mi Calm Calm - N/A   Scattered Clouds
8:33 AM -4.0 °F - -5.8 °F 92% 30.17 in 10.0 mi Calm Calm - N/A   Mostly Cloudy
8:53 AM -2.2 °F - -5.8 °F 85% 30.18 in 10.0 mi Calm Calm - N/A   Overcast
9:14 AM -4.0 °F - -7.6 °F 85% 30.19 in 10.0 mi Calm Calm - N/A   Overcast
9:33 AM -2.2 °F - -5.8 °F 85% 30.19 in 10.0 mi Calm Calm - N/A   Overcast
9:53 AM -0.4 °F - -4.0 °F 85% 30.19 in 10.0 mi Calm Calm - N/A   Overcast
10:13 AM 1.4 °F -6.2 °F -2.2 °F 85% 30.19 in 10.0 mi WSW 3.5 mph - N/A   Scattered Clouds
10:33 AM 1.4 °F - -0.4 °F 92% 30.19 in 10.0 mi Calm Calm - N/A   Scattered Clouds
10:54 AM 3.2 °F - -0.4 °F 85% 30.18 in 10.0 mi Calm Calm - N/A   Scattered Clouds
11:13 AM 3.2 °F - -0.4 °F 85% 30.17 in 10.0 mi Calm Calm - N/A   Clear
11:33 AM 5.0 °F - -0.4 °F 78% 30.17 in 10.0 mi Calm Calm - N/A   Scattered Clouds
11:53 AM 6.8 °F -0.1 °F 1.4 °F 79% 30.17 in 10.0 mi WSW 3.5 mph - N/A   Overcast
12:13 PM 6.8 °F - 1.4 °F 79% 30.16 in 10.0 mi Calm Calm - N/A   Overcast
12:34 PM 8.6 °F 2.0 °F 1.4 °F 73% 30.18 in 10.0 mi NNW 3.5 mph - N/A   Overcast
12:53 PM 8.6 °F 0.1 °F 1.4 °F 73% 30.17 in 10.0 mi NW 4.6 mph - N/A   Overcast
1:13 PM 8.6 °F - 3.2 °F 79% 30.16 in 10.0 mi Calm Calm - N/A   Overcast
1:34 PM 8.6 °F - 1.4 °F 73% 30.14 in 10.0 mi Calm Calm - N/A   Overcast
1:53 PM 8.6 °F - 3.2 °F 79% 30.14 in 10.0 mi Calm Calm - N/A   Overcast
2:13 PM 8.6 °F - 3.2 °F 79% 30.13 in 10.0 mi Calm Calm - N/A   Overcast
2:34 PM 10.4 °F - 3.2 °F 73% 30.13 in 10.0 mi Calm Calm - N/A   Overcast
2:53 PM 10.4 °F 4.0 °F 3.2 °F 73% 30.12 in 10.0 mi SSW 3.5 mph - N/A Snow Light Snow
3:13 PM 10.4 °F - 3.2 °F 73% 30.12 in 10.0 mi Calm Calm - N/A   Overcast
3:34 PM 10.4 °F - 5.0 °F 79% 30.11 in 10.0 mi Calm Calm - N/A   Overcast
3:53 PM 10.4 °F - 5.0 °F 79% 30.12 in 10.0 mi Calm Calm - N/A   Overcast
4:13 PM 10.4 °F - 5.0 °F 79% 30.13 in 10.0 mi Calm Calm - N/A   Overcast
4:34 PM 10.4 °F - 5.0 °F 79% 30.13 in 10.0 mi Calm Calm - N/A   Overcast
4:53 PM 10.4 °F - 5.0 °F 79% 30.13 in 10.0 mi Calm Calm - N/A Snow Light Snow
5:14 PM 10.4 °F - 5.0 °F 79% 30.13 in 10.0 mi Calm Calm - N/A   Overcast
5:34 PM 10.4 °F - 5.0 °F 79% 30.13 in 10.0 mi Calm Calm - N/A   Overcast
5:53 PM 10.4 °F - 5.0 °F 79% 30.12 in 10.0 mi Calm Calm - N/A   Overcast
6:14 PM 10.4 °F - 6.8 °F 85% 30.11 in 10.0 mi Calm Calm - N/A   Overcast
6:34 PM 10.4 °F - 5.0 °F 79% 30.11 in 10.0 mi Calm Calm - N/A   Overcast
6:53 PM 10.4 °F - 5.0 °F 79% 30.10 in 10.0 mi Calm Calm - N/A   Overcast
7:13 PM 10.4 °F 4.0 °F 6.8 °F 85% 30.10 in 10.0 mi North 3.5 mph - N/A   Overcast
7:34 PM 10.4 °F 2.2 °F 6.8 °F 85% 30.11 in 10.0 mi North 4.6 mph - N/A   Overcast
7:53 PM 10.4 °F 2.2 °F 5.0 °F 79% 30.11 in 10.0 mi North 4.6 mph - N/A   Overcast
8:13 PM 10.4 °F 4.0 °F 5.0 °F 79% 30.11 in 10.0 mi NNE 3.5 mph - N/A   Overcast
8:34 PM 10.4 °F - 5.0 °F 79% 30.11 in 10.0 mi Calm Calm - N/A   Overcast
8:53 PM 10.4 °F - 6.8 °F 85% 30.11 in 10.0 mi Calm Calm - N/A   Overcast
9:14 PM 10.4 °F - 6.8 °F 85% 30.11 in 10.0 mi Calm Calm - N/A   Overcast
9:33 PM 10.4 °F - 6.8 °F 85% 30.11 in 10.0 mi Calm Calm - N/A   Overcast
9:53 PM 10.4 °F 4.0 °F 5.0 °F 79% 30.11 in 10.0 mi North 3.5 mph - N/A   Overcast
10:14 PM 10.4 °F - 6.8 °F 85% 30.12 in 10.0 mi Calm Calm - N/A   Overcast
10:33 PM 10.4 °F - 5.0 °F 79% 30.12 in 10.0 mi Calm Calm - N/A   Overcast
10:53 PM 10.4 °F - 6.8 °F 85% 30.12 in 10.0 mi Calm Calm - N/A   Overcast
11:14 PM 10.4 °F 2.2 °F 6.8 °F 85% 30.12 in 10.0 mi North 4.6 mph - N/A   Overcast
11:33 PM 10.4 °F 4.0 °F 6.8 °F 85% 30.12 in 10.0 mi North 3.5 mph - N/A   Overcast
11:53 PM 10.4 °F 2.2 °F 6.8 °F 85% 30.13 in 10.0 mi NNE 4.6 mph - N/A   Overcast